sat.trackr.live / text

‹ back to catalog

STARLINK-2578

NORAD 48362 · 2021-038K

PAYLOAD ACTIVE UNKNOWN

§ Identity

Operator
Country
US
Launch date
2021-05-04
Launch site
AFETR
Launch vehicle
Mass (kg)
RCS (m²)

Purposes: comms

External: N2YO · Heavens-Above · Gunter

§ Orbital elements

Epoch: 2026-09-19T11:14:08.582496Z

Period
94.01 min
Inclination
53.1603°
Eccentricity
0.0001324
Mean motion
15.31681309 rev/d
Perigee alt
469.9 km
Apogee alt
471.7 km
Semi-major
6,848.9 km
B*
-2.0855e-4
RAAN
176.3233°
Arg perigee
87.1709°
Mean anomaly
272.9444°
Rev number
29,677

§ Raw data

STARLINK-25781 48362U 21038K   26262.46815489 -.00006827  00000+0 -20855-3 0  99972 48362  53.1603 176.3233 0001324  87.1709 272.9444 15.31681309296770

JSON: /api/v1/satellites/48362 · /tle

For live sub-satellite position, see the globe view (requires WebGL).

§ Visibility from observer

Set your observer location to see the next 7 days of passes ≥ 10°. The values pass through the URL so the page stays shareable.

No JS? Fill the form by hand. The geolocation button needs JavaScript.